QPF
0.08 0.06 0.04 0.06 0.06 0.05 0.04 0.03 0.03 0.03 0.03 0.02 0.02 0.02 0.02 0.03 0.06 0.07 0.08 0.07 0.05 0.07 0.09 0.11 0.10 0.09 0.08 0.08 0.08 0.07 0.07 0.07 0.07 0.05 0.04 0.04 0.05 0.05 0.05 0.05 0.05 0.05 0.05
0.10 0.08 0.07 0.06 0.06 0.06 0.06 0.06 0.04 0.05 0.05 0.05 0.04 0.03 0.03 0.04 0.06 0.07 0.11 0.09 0.05 0.06 0.08 0.10 0.10 0.09 0.08 0.06 0.05 0.05 0.06 0.07 0.07 0.06 0.04 0.03 0.03 0.03 0.04 0.04 0.04 0.03 0.03
0.11 0.11 0.10 0.09 0.09 0.09 0.09 0.09 0.08 0.08 0.07 0.06 0.06 0.04 0.04 0.06 0.06 0.08 0.11 0.13 0.09 0.05 0.05 0.06 0.08 0.07 0.07 0.07 0.07 0.07 0.07 0.06 0.05 0.03 0.03 0.03 0.02 0.02 0.02 0.02 0.02 0.03 0.04
0.12 0.12 0.12 0.12 0.11 0.10 0.09 0.11 0.10 0.09 0.10 0.09 0.08 0.07 0.05 0.05 0.05 0.06 0.08 0.10 0.12 0.10 0.07 0.04 0.04 0.04 0.06 0.08 0.09 0.09 0.07 0.05 0.04 0.04 0.03 0.03 0.02 0.02 0.03 0.03 0.03 0.03 0.03
0.11 0.14 0.15 0.16 0.14 0.12 0.11 0.12 0.13 0.14 0.13 0.12 0.11 0.09 0.06 0.05 0.06 0.05 0.05 0.07 0.09 0.10 0.09 0.05 0.04 0.05 0.06 0.07 0.09 0.09 0.07 0.05 0.04 0.03 0.02 0.02 0.02 0.02 0.02 0.02 0.02 0.02 0.03
0.10 0.12 0.18 0.20 0.20 0.18 0.16 0.15 0.16 0.17 0.14 0.14 0.14 0.13 0.12 0.09 0.08 0.07 0.06 0.06 0.06 0.06 0.07 0.07 0.07 0.06 0.05 0.06 0.06 0.06 0.04 0.03 0.02 0.01 0.01 0.01 0.02 0.02 0.02 0.02 0.03 0.05 0.05
0.13 0.15 0.17 0.19 0.20 0.21 0.18 0.18 0.20 0.21 0.19 0.20 0.21 0.18 0.15 0.11 0.08 0.06 0.05 0.05 0.04 0.04 0.04 0.05 0.06 0.06 0.05 0.04 0.03 0.03 0.03 0.03 0.02 0.02 0.02 0.01 0.01 0.02 0.03 0.03 0.04 0.04 0.03
0.15 0.18 0.20 0.22 0.25 0.27 0.23 0.20 0.21 0.23 0.23 0.23 0.24 0.24 0.19 0.15 0.10 0.07 0.06 0.05 0.04 0.04 0.04 0.05 0.05 0.05 0.04 0.03 0.02 0.02 0.02 0.02 0.02 0.02 0.01 0.01 0.01 0.01 0.02 0.03 0.02 0.02 0.01
0.14 0.15 0.16 0.18 0.20 0.24 0.25 0.22 0.21 0.23 0.23 0.22 0.21 0.25 0.22 0.17 0.12 0.09 0.07 0.06 0.05 0.05 0.05 0.04 0.04 0.03 0.03 0.02 0.02 0.02 0.01 0.01 0.01 0.01 0.01 0.01 0.01 0.01 0.01 0.01 0.02 0.02 0.02
0.13 0.14 0.15 0.16 0.18 0.19 0.20 0.23 0.24 0.23 0.24 0.22 0.20 0.19 0.19 0.16 0.14 0.12 0.10 0.08 0.07 0.06 0.05 0.04 0.04 0.03 0.02 0.01 0.02 0.02 0.01 0.01 0.01 0.01 0.00 0.01 0.01 0.01 0.01 0.01 0.01 0.01 0.02
0.10 0.12 0.13 0.14 0.17 0.19 0.20 0.20 0.22 0.23 0.23 0.21 0.19 0.18 0.18 0.15 0.12 0.09 0.10 0.10 0.10 0.09 0.08 0.06 0.04 0.03 0.02 0.02 0.01 0.01 0.01 0.01 0.00 0.00 0.00 0.00 0.00 0.00 0.00 0.00 0.00 0.00 0.01
0.08 0.09 0.10 0.10 0.12 0.15 0.18 0.19 0.20 0.23 0.23 0.24 0.25 0.23 0.21 0.19 0.16 0.13 0.12 0.12 0.14 0.14 0.12 0.09 0.06 0.04 0.03 0.02 0.01 0.01 0.01 0.00 0.00 0.00 0.00 0.00 0.00 0.00 0.00 0.00 0.00 0.00 0.00
0.08 0.08 0.08 0.07 0.09 0.12 0.14 0.16 0.18 0.20 0.23 0.25 0.27 0.26 0.26 0.24 0.22 0.21 0.21 0.21 0.18 0.16 0.13 0.10 0.07 0.05 0.04 0.03 0.02 0.02 0.01 0.01 0.01 0.01 0.01 0.01 0.01 0.01 0.00 0.00 0.00 0.00 0.00
0.07 0.07 0.08 0.08 0.10 0.11 0.11 0.13 0.17 0.22 0.26 0.29 0.28 0.28 0.31 0.31 0.27 0.25 0.24 0.23 0.22 0.20 0.16 0.13 0.09 0.06 0.05 0.04 0.04 0.04 0.03 0.02 0.02 0.01 0.01 0.01 0.01 0.01 0.00 0.00 0.00 0.00 0.00
0.08 0.07 0.06 0.07 0.09 0.09 0.08 0.09 0.13 0.19 0.24 0.28 0.30 0.30 0.32 0.33 0.32 0.29 0.25 0.23 0.22 0.22 0.20 0.15 0.11 0.08 0.06 0.05 0.04 0.03 0.02 0.02 0.02 0.01 0.01 0.01 0.01 0.00 0.00 0.00 0.00 0.00 0.00
0.08 0.07 0.05 0.04 0.05 0.07 0.09 0.09 0.11 0.15 0.17 0.19 0.22 0.25 0.26 0.28 0.30 0.29 0.29 0.27 0.24 0.19 0.16 0.13 0.10 0.08 0.06 0.04 0.04 0.03 0.02 0.02 0.01 0.01 0.00 0.00 0.00 0.00 0.00 0.00 0.00 0.00 0.00
0.08 0.07 0.06 0.05 0.05 0.06 0.08 0.10 0.10 0.12 0.14 0.15 0.15 0.15 0.16 0.17 0.19 0.19 0.19 0.18 0.16 0.14 0.12 0.11 0.09 0.08 0.06 0.04 0.03 0.02 0.01 0.01 0.00 0.00 0.00 0.00 0.00 0.00 0.00 0.00 0.00 0.00 0.00
0.07 0.08 0.06 0.06 0.06 0.07 0.07 0.08 0.07 0.07 0.08 0.09 0.09 0.10 0.11 0.11 0.12 0.12 0.12 0.12 0.11 0.09 0.08 0.08 0.08 0.06 0.05 0.03 0.02 0.01 0.00 0.00 0.00 0.00 0.00 0.00 0.00 0.00 0.00 0.00 0.00 0.00 0.00
0.08 0.09 0.08 0.08 0.07 0.07 0.06 0.05 0.05 0.04 0.04 0.05 0.06 0.06 0.07 0.07 0.07 0.07 0.06 0.06 0.06 0.06 0.05 0.04 0.04 0.03 0.02 0.02 0.02 0.01 0.00 0.00 0.00 0.00 0.00 0.00 0.00 0.00 0.00 0.00 0.00 0.00 0.00
0.08 0.10 0.11 0.10 0.08 0.07 0.06 0.05 0.06 0.05 0.04 0.04 0.04 0.03 0.04 0.04 0.04 0.03 0.03 0.02 0.02 0.02 0.02 0.01 0.01 0.01 0.01 0.01 0.01 0.01 0.01 0.01 0.00 0.00 0.00 0.00 0.00 0.00 0.00 0.00 0.00 0.00 0.00
0.08 0.08 0.08 0.09 0.08 0.06 0.05 0.06 0.08 0.06 0.05 0.04 0.04 0.03 0.03 0.03 0.03 0.02 0.01 0.01 0.01 0.01 0.00 0.00 0.01 0.01 0.01 0.01 0.01 0.01 0.01 0.01 0.01 0.00 0.00 0.00 0.00 0.00 0.00 0.00 0.00 0.00 0.00
0.06 0.06 0.06 0.06 0.06 0.05 0.04 0.05 0.06 0.06 0.04 0.03 0.03 0.02 0.02 0.02 0.01 0.01 0.00 0.00 0.00 0.00 0.00 0.00 0.00 0.01 0.01 0.01 0.00 0.00 0.00 0.00 0.01 0.00 0.00 0.01 0.00 0.01 0.01 0.01 0.00 0.00 0.00
0.05 0.04 0.03 0.03 0.04 0.04 0.03 0.03 0.03 0.02 0.02 0.02 0.01 0.01 0.01 0.01 0.00 0.00 0.00 0.00 0.00 0.00 0.00 0.00 0.00 0.00 0.00 0.00 0.00 0.00 0.00 0.00 0.01 0.00 0.00 0.01 0.00 0.01 0.00 0.00 0.00 0.00 0.00
0.05 0.05 0.04 0.02 0.02 0.02 0.02 0.01 0.01 0.01 0.01 0.01 0.01 0.01 0.00 0.00 0.00 0.00 0.00 0.00 0.00 0.00 0.00 0.00 0.00 0.00 0.00 0.00 0.00 0.00 0.00 0.00 0.01 0.00 0.00 0.01 0.00 0.00 0.00 0.00 0.00 0.00 0.00
0.03 0.04 0.04 0.03 0.02 0.02 0.01 0.00 0.00 0.00 0.00 0.00 0.00 0.00 0.00 0.00 0.00 0.00 0.00 0.00 0.00 0.00 0.00 0.00 0.00 0.00 0.00 0.00 0.00 0.00 0.00 0.01 0.01 0.01 0.00 0.01 0.01 0.01 0.01 0.00 0.00 0.00 0.00
0.03 0.03 0.04 0.03 0.02 0.01 0.00 0.00 0.00 0.00 0.00 0.00 0.00 0.00 0.00 0.00 0.00 0.00 0.00 0.00 0.00 0.00 0.00 0.00 0.00 0.00 0.00 0.00 0.00 0.01 0.01 0.01 0.01 0.02 0.01 0.01 0.01 0.01 0.01 0.01 0.00 0.00 0.00
MSLP
1017.04 1017.36 1017.65 1017.94 1018.22 1018.49 1018.77 1019.05 1019.32 1019.57 1019.79 1019.99 1020.17 1020.35 1020.56 1020.80 1021.10 1021.45 1021.85 1022.27 1022.67 1023.02 1023.30 1023.49 1023.59 1023.62 1023.60 1023.54 1023.48 1023.43 1023.39 1023.35 1023.32 1023.27 1023.22 1023.16 1023.10 1023.05 1023.03 1023.04 1023.08 1023.14 1023.22
1016.68 1017.00 1017.30 1017.60 1017.91 1018.22 1018.56 1018.92 1019.29 1019.66 1020.02 1020.35 1020.65 1020.93 1021.19 1021.45 1021.73 1022.03 1022.34 1022.68 1023.01 1023.32 1023.59 1023.81 1023.97 1024.07 1024.13 1024.16 1024.16 1024.15 1024.13 1024.10 1024.07 1024.02 1023.96 1023.89 1023.83 1023.78 1023.76 1023.76 1023.78 1023.81 1023.85
1016.33 1016.66 1016.98 1017.31 1017.66 1018.04 1018.46 1018.91 1019.40 1019.91 1020.41 1020.88 1021.30 1021.67 1021.99 1022.25 1022.49 1022.71 1022.94 1023.17 1023.41 1023.66 1023.91 1024.14 1024.35 1024.52 1024.65 1024.75 1024.81 1024.84 1024.85 1024.83 1024.80 1024.75 1024.69 1024.63 1024.57 1024.53 1024.50 1024.50 1024.50 1024.51 1024.52
1016.00 1016.35 1016.70 1017.06 1017.46 1017.90 1018.40 1018.95 1019.56 1020.20 1020.84 1021.44 1021.98 1022.44 1022.81 1023.08 1023.28 1023.43 1023.57 1023.70 1023.86 1024.04 1024.26 1024.48 1024.72 1024.93 1025.12 1025.27 1025.38 1025.45 1025.47 1025.46 1025.43 1025.38 1025.33 1025.28 1025.23 1025.20 1025.18 1025.16 1025.16 1025.15 1025.14
1015.71 1016.06 1016.42 1016.81 1017.24 1017.72 1018.28 1018.92 1019.62 1020.37 1021.13 1021.86 1022.52 1023.07 1023.49 1023.79 1023.98 1024.09 1024.15 1024.21 1024.29 1024.42 1024.59 1024.81 1025.05 1025.29 1025.51 1025.70 1025.83 1025.92 1025.95 1025.95 1025.92 1025.87 1025.82 1025.78 1025.74 1025.72 1025.71 1025.70 1025.69 1025.68 1025.65
1015.44 1015.78 1016.13 1016.52 1016.95 1017.45 1018.03 1018.71 1019.47 1020.30 1021.15 1021.98 1022.74 1023.39 1023.90 1024.25 1024.46 1024.57 1024.61 1024.63 1024.67 1024.75 1024.90 1025.10 1025.34 1025.59 1025.82 1026.02 1026.17 1026.26 1026.30 1026.29 1026.26 1026.21 1026.17 1026.13 1026.11 1026.10 1026.09 1026.09 1026.08 1026.06 1026.03
1015.22 1015.52 1015.83 1016.17 1016.56 1017.03 1017.59 1018.25 1019.03 1019.90 1020.81 1021.73 1022.59 1023.33 1023.94 1024.38 1024.66 1024.81 1024.87 1024.90 1024.93 1025.01 1025.14 1025.33 1025.57 1025.82 1026.06 1026.26 1026.41 1026.51 1026.54 1026.53 1026.50 1026.45 1026.41 1026.38 1026.37 1026.36 1026.36 1026.36 1026.35 1026.33 1026.29
1015.06 1015.29 1015.53 1015.79 1016.10 1016.48 1016.97 1017.59 1018.33 1019.19 1020.14 1021.11 1022.05 1022.91 1023.62 1024.17 1024.56 1024.80 1024.93 1025.01 1025.07 1025.17 1025.31 1025.51 1025.74 1026.00 1026.24 1026.45 1026.61 1026.70 1026.74 1026.74 1026.71 1026.67 1026.63 1026.61 1026.59 1026.58 1026.58 1026.57 1026.55 1026.53 1026.49
1014.98 1015.12 1015.27 1015.42 1015.61 1015.88 1016.26 1016.78 1017.46 1018.28 1019.23 1020.24 1021.25 1022.20 1023.03 1023.71 1024.22 1024.58 1024.81 1024.97 1025.09 1025.23 1025.41 1025.62 1025.88 1026.15 1026.40 1026.63 1026.80 1026.91 1026.97 1026.98 1026.97 1026.94 1026.91 1026.88 1026.86 1026.85 1026.83 1026.81 1026.78 1026.74 1026.70
1014.99 1015.05 1015.08 1015.12 1015.18 1015.32 1015.57 1015.98 1016.57 1017.34 1018.27 1019.29 1020.36 1021.39 1022.33 1023.13 1023.77 1024.24 1024.58 1024.83 1025.03 1025.23 1025.44 1025.69 1025.97 1026.27 1026.55 1026.80 1027.01 1027.16 1027.25 1027.29 1027.30 1027.29 1027.27 1027.25 1027.23 1027.20 1027.17 1027.12 1027.07 1027.02 1026.96
1015.10 1015.08 1015.02 1014.94 1014.88 1014.90 1015.03 1015.33 1015.83 1016.54 1017.42 1018.45 1019.55 1020.64 1021.66 1022.56 1023.30 1023.88 1024.32 1024.65 1024.92 1025.17 1025.43 1025.72 1026.03 1026.36 1026.68 1026.98 1027.23 1027.42 1027.56 1027.65 1027.69 1027.71 1027.71 1027.70 1027.68 1027.64 1027.60 1027.54 1027.47 1027.39 1027.31
1015.30 1015.22 1015.09 1014.92 1014.77 1014.68 1014.72 1014.93 1015.35 1015.99 1016.85 1017.86 1018.96 1020.08 1021.15 1022.12 1022.93 1023.58 1024.08 1024.47 1024.79 1025.08 1025.38 1025.69 1026.04 1026.41 1026.77 1027.11 1027.41 1027.66 1027.85 1027.99 1028.08 1028.13 1028.16 1028.16 1028.15 1028.12 1028.07 1028.01 1027.92 1027.83 1027.73
1015.56 1015.46 1015.28 1015.07 1014.85 1014.70 1014.68 1014.83 1015.19 1015.78 1016.59 1017.57 1018.66 1019.78 1020.86 1021.85 1022.68 1023.36 1023.89 1024.31 1024.65 1024.96 1025.27 1025.61 1025.98 1026.38 1026.78 1027.16 1027.51 1027.81 1028.05 1028.23 1028.36 1028.45 1028.51 1028.54 1028.56 1028.55 1028.51 1028.46 1028.38 1028.28 1028.17
1015.87 1015.76 1015.57 1015.34 1015.11 1014.94 1014.89 1015.01 1015.33 1015.89 1016.66 1017.60 1018.65 1019.73 1020.79 1021.74 1022.56 1023.22 1023.74 1024.15 1024.49 1024.80 1025.11 1025.45 1025.83 1026.25 1026.67 1027.09 1027.47 1027.80 1028.07 1028.29 1028.45 1028.58 1028.67 1028.73 1028.78 1028.81 1028.81 1028.79 1028.73 1028.65 1028.54
1016.19 1016.10 1015.93 1015.72 1015.50 1015.34 1015.30 1015.41 1015.72 1016.25 1016.98 1017.86 1018.85 1019.87 1020.86 1021.75 1022.52 1023.13 1023.61 1023.98 1024.30 1024.58 1024.89 1025.22 1025.60 1026.02 1026.45 1026.87 1027.27 1027.61 1027.89 1028.12 1028.30 1028.44 1028.55 1028.65 1028.74 1028.82 1028.88 1028.91 1028.90 1028.85 1028.76
1016.52 1016.46 1016.33 1016.15 1015.98 1015.86 1015.84 1015.97 1016.27 1016.77 1017.45 1018.27 1019.18 1020.11 1021.01 1021.82 1022.50 1023.04 1023.47 1023.80 1024.07 1024.33 1024.62 1024.94 1025.31 1025.71 1026.14 1026.55 1026.92 1027.25 1027.52 1027.73 1027.90 1028.04 1028.16 1028.29 1028.42 1028.55 1028.67 1028.77 1028.82 1028.83 1028.78
1016.85 1016.82 1016.74 1016.62 1016.51 1016.43 1016.45 1016.60 1016.90 1017.37 1018.00 1018.74 1019.56 1020.39 1021.18 1021.88 1022.48 1022.95 1023.31 1023.60 1023.84 1024.08 1024.34 1024.65 1025.01 1025.39 1025.79 1026.17 1026.51 1026.79 1027.02 1027.19 1027.32 1027.43 1027.55 1027.68 1027.84 1028.01 1028.20 1028.36 1028.49 1028.57 1028.57
1017.19 1017.20 1017.17 1017.11 1017.06 1017.04 1017.10 1017.27 1017.57 1018.00 1018.56 1019.22 1019.94 1020.66 1021.34 1021.95 1022.46 1022.86 1023.18 1023.43 1023.65 1023.88 1024.14 1024.43 1024.77 1025.14 1025.50 1025.83 1026.12 1026.34 1026.50 1026.61 1026.68 1026.74 1026.82 1026.94 1027.11 1027.31 1027.54 1027.76 1027.96 1028.10 1028.16
1017.56 1017.62 1017.63 1017.64 1017.64 1017.68 1017.77 1017.95 1018.24 1018.63 1019.13 1019.70 1020.32 1020.94 1021.53 1022.05 1022.48 1022.83 1023.11 1023.35 1023.56 1023.79 1024.05 1024.34 1024.67 1025.01 1025.33 1025.62 1025.84 1026.00 1026.08 1026.10 1026.10 1026.10 1026.13 1026.21 1026.35 1026.56 1026.80 1027.06 1027.30 1027.49 1027.59
1017.99 1018.08 1018.15 1018.21 1018.27 1018.34 1018.47 1018.66 1018.93 1019.28 1019.71 1020.21 1020.74 1021.27 1021.77 1022.22 1022.60 1022.92 1023.18 1023.40 1023.62 1023.86 1024.12 1024.42 1024.73 1025.05 1025.34 1025.57 1025.74 1025.82 1025.83 1025.77 1025.69 1025.61 1025.57 1025.60 1025.70 1025.87 1026.10 1026.36 1026.62 1026.82 1026.96
1018.49 1018.62 1018.73 1018.84 1018.94 1019.06 1019.20 1019.39 1019.64 1019.96 1020.34 1020.76 1021.22 1021.68 1022.12 1022.52 1022.86 1023.15 1023.41 1023.64 1023.86 1024.11 1024.37 1024.66 1024.96 1025.26 1025.51 1025.70 1025.82 1025.84 1025.78 1025.65 1025.50 1025.34 1025.23 1025.19 1025.22 1025.34 1025.53 1025.75 1025.98 1026.18 1026.31
1019.08 1019.24 1019.39 1019.54 1019.67 1019.82 1019.98 1020.17 1020.40 1020.69 1021.02 1021.40 1021.80 1022.21 1022.60 1022.96 1023.29 1023.57 1023.82 1024.04 1024.27 1024.51 1024.77 1025.04 1025.32 1025.59 1025.81 1025.96 1026.03 1026.01 1025.90 1025.72 1025.51 1025.29 1025.11 1025.00 1024.96 1025.00 1025.11 1025.27 1025.44 1025.60 1025.70
1019.77 1019.96 1020.14 1020.30 1020.47 1020.62 1020.79 1020.98 1021.20 1021.46 1021.77 1022.11 1022.48 1022.85 1023.22 1023.56 1023.86 1024.13 1024.37 1024.58 1024.80 1025.01 1025.25 1025.49 1025.73 1025.96 1026.14 1026.26 1026.30 1026.24 1026.11 1025.90 1025.65 1025.40 1025.16 1024.98 1024.87 1024.83 1024.86 1024.93 1025.02 1025.10 1025.14
1020.57 1020.77 1020.96 1021.14 1021.31 1021.47 1021.64 1021.82 1022.03 1022.27 1022.56 1022.88 1023.23 1023.58 1023.93 1024.25 1024.54 1024.79 1025.00 1025.19 1025.36 1025.54 1025.72 1025.91 1026.10 1026.28 1026.42 1026.50 1026.51 1026.45 1026.30 1026.09 1025.83 1025.56 1025.30 1025.07 1024.89 1024.78 1024.71 1024.69 1024.68 1024.67 1024.64
1021.44 1021.65 1021.84 1022.02 1022.18 1022.33 1022.49 1022.66 1022.86 1023.09 1023.37 1023.67 1024.00 1024.34 1024.67 1024.97 1025.24 1025.45 1025.63 1025.77 1025.89 1026.00 1026.11 1026.23 1026.36 1026.47 1026.56 1026.61 1026.60 1026.53 1026.39 1026.19 1025.95 1025.68 1025.41 1025.15 1024.93 1024.75 1024.61 1024.49 1024.39 1024.29 1024.17
1022.38 1022.58 1022.76 1022.92 1023.06 1023.20 1023.34 1023.49 1023.67 1023.89 1024.15 1024.44 1024.75 1025.07 1025.38 1025.65 1025.88 1026.05 1026.18 1026.26 1026.31 1026.34 1026.38 1026.41 1026.46 1026.51 1026.54 1026.55 1026.53 1026.46 1026.33 1026.16 1025.94 1025.69 1025.42 1025.16 1024.91 1024.69 1024.48 1024.29 1024.11 1023.92 1023.72
Thickness
5731 5732 5731 5729 5730 5730 5728 5727 5728 5727 5725 5725 5725 5726 5725 5725 5724 5723 5721 5718 5716 5714 5713 5711 5709 5708 5706 5705 5703 5701 5700 5698 5696 5695 5693 5692 5691 5689 5688 5687 5686 5684 5683
5728 5728 5727 5726 5726 5726 5726 5724 5724 5723 5722 5721 5720 5720 5720 5720 5718 5717 5717 5714 5711 5710 5709 5707 5706 5704 5702 5701 5699 5697 5695 5693 5692 5690 5688 5687 5685 5683 5682 5681 5679 5678 5677
5724 5723 5723 5722 5722 5721 5720 5719 5718 5718 5717 5716 5714 5713 5712 5712 5712 5711 5711 5710 5708 5705 5703 5702 5701 5699 5698 5696 5694 5692 5690 5688 5686 5684 5682 5680 5678 5677 5675 5673 5672 5670 5669
5718 5718 5719 5718 5717 5716 5716 5715 5713 5713 5712 5710 5708 5707 5706 5705 5704 5704 5705 5704 5703 5701 5698 5696 5695 5694 5693 5691 5689 5686 5684 5682 5679 5677 5675 5673 5671 5669 5668 5666 5664 5662 5660
5714 5714 5714 5713 5712 5712 5711 5711 5709 5707 5705 5703 5701 5699 5698 5698 5697 5697 5697 5697 5697 5696 5693 5690 5689 5687 5686 5685 5682 5680 5677 5675 5672 5670 5668 5665 5663 5661 5659 5658 5655 5653 5651
5708 5709 5708 5709 5708 5707 5706 5706 5703 5701 5700 5697 5694 5691 5689 5689 5689 5689 5689 5689 5690 5689 5687 5685 5683 5680 5678 5677 5675 5672 5670 5667 5664 5662 5659 5657 5655 5653 5651 5648 5646 5644 5641
5703 5703 5704 5704 5703 5703 5702 5701 5699 5695 5693 5692 5687 5681 5678 5678 5680 5680 5681 5682 5682 5680 5679 5677 5676 5674 5671 5668 5666 5664 5662 5659 5656 5653 5651 5648 5646 5643 5641 5639 5636 5634 5632
5696 5698 5698 5698 5699 5698 5698 5697 5695 5691 5688 5689 5686 5678 5671 5668 5669 5672 5672 5673 5673 5672 5670 5669 5667 5665 5664 5661 5657 5655 5652 5650 5647 5644 5642 5639 5636 5634 5631 5629 5626 5624 5621
5689 5690 5691 5691 5692 5692 5692 5692 5691 5689 5685 5684 5685 5682 5675 5670 5665 5661 5662 5663 5663 5663 5662 5659 5657 5656 5654 5652 5648 5645 5642 5640 5638 5635 5632 5630 5627 5625 5622 5619 5617 5614 5611
5681 5682 5683 5685 5686 5687 5687 5687 5688 5686 5684 5681 5680 5681 5681 5678 5668 5656 5653 5653 5653 5653 5652 5650 5648 5646 5645 5642 5638 5635 5632 5630 5628 5625 5623 5620 5617 5615 5612 5609 5606 5603 5601
5673 5674 5675 5677 5679 5680 5682 5683 5683 5682 5682 5680 5678 5676 5673 5672 5670 5663 5652 5646 5643 5642 5641 5640 5639 5637 5634 5632 5629 5625 5622 5620 5618 5615 5613 5610 5607 5604 5602 5599 5596 5593 5590
5665 5666 5667 5669 5671 5672 5674 5676 5677 5676 5677 5677 5675 5673 5671 5669 5666 5663 5654 5645 5639 5634 5632 5630 5629 5628 5625 5623 5620 5615 5613 5610 5608 5605 5602 5600 5596 5594 5591 5588 5585 5582 5579
5656 5657 5659 5661 5663 5664 5666 5668 5670 5671 5672 5671 5670 5669 5668 5667 5665 5660 5652 5641 5633 5626 5623 5621 5620 5619 5617 5615 5611 5607 5603 5601 5598 5595 5593 5590 5587 5584 5581 5578 5574 5571 5567
5647 5648 5650 5651 5654 5656 5658 5660 5662 5663 5664 5664 5664 5662 5661 5659 5657 5654 5648 5639 5628 5620 5616 5614 5612 5611 5610 5607 5603 5599 5595 5592 5589 5586 5583 5581 5578 5574 5571 5567 5564 5560 5556
5638 5639 5640 5642 5644 5646 5648 5650 5651 5653 5654 5655 5655 5655 5653 5651 5649 5647 5643 5639 5631 5620 5612 5608 5607 5604 5602 5598 5594 5592 5589 5584 5581 5578 5575 5572 5569 5566 5562 5558 5554 5550 5546
5627 5629 5631 5633 5634 5636 5637 5639 5641 5642 5643 5644 5644 5644 5643 5641 5638 5636 5634 5631 5629 5623 5614 5607 5603 5599 5594 5592 5586 5584 5581 5577 5573 5570 5567 5564 5560 5557 5553 5549 5545 5541 5537
5618 5619 5621 5623 5625 5626 5627 5629 5630 5632 5633 5633 5634 5633 5631 5630 5629 5627 5625 5622 5620 5618 5610 5601 5596 5590 5586 5584 5580 5578 5576 5572 5568 5563 5560 5556 5552 5549 5545 5541 5537 5532 5529
5608 5610 5612 5614 5615 5616 5618 5619 5621 5622 5623 5623 5623 5623 5622 5620 5619 5618 5617 5615 5612 5609 5605 5596 5589 5584 5579 5576 5573 5571 5570 5568 5564 5557 5552 5549 5545 5541 5537 5533 5529 5525 5521
5598 5600 5602 5604 5604 5605 5607 5609 5611 5612 5613 5614 5614 5613 5612 5611 5610 5609 5608 5606 5603 5600 5595 5589 5583 5578 5574 5570 5567 5565 5563 5559 5557 5551 5546 5542 5538 5534 5530 5526 5522 5518 5515
5588 5589 5591 5592 5593 5595 5597 5598 5600 5601 5602 5602 5602 5602 5602 5601 5600 5600 5598 5595 5593 5590 5585 5582 5577 5572 5567 5563 5562 5560 5557 5554 5551 5547 5541 5537 5533 5529 5526 5521 5517 5513 5510
5578 5579 5580 5581 5582 5584 5585 5587 5589 5590 5591 5591 5590 5589 5588 5587 5587 5588 5589 5586 5584 5582 5579 5575 5570 5566 5561 5557 5556 5553 5550 5547 5543 5540 5538 5536 5531 5528 5523 5518 5513 5509 5506
5567 5568 5569 5570 5571 5570 5571 5574 5578 5579 5579 5579 5579 5578 5577 5576 5574 5574 5573 5572 5572 5572 5571 5568 5564 5558 5552 5550 5546 5545 5543 5541 5538 5533 5532 5531 5528 5526 5521 5518 5511 5507 5503
5556 5557 5557 5558 5558 5557 5559 5562 5565 5568 5569 5568 5568 5569 5569 5565 5566 5564 5561 5560 5558 5556 5555 5556 5554 5549 5544 5540 5538 5537 5533 5532 5529 5527 5526 5526 5524 5521 5518 5515 5508 5504 5501
5547 5548 5548 5547 5547 5546 5548 5551 5554 5557 5558 5558 5558 5558 5557 5556 5556 5556 5555 5552 5549 5545 5544 5544 5540 5537 5534 5530 5528 5527 5525 5524 5523 5521 5519 5519 5519 5518 5516 5512 5506 5503 5499
5538 5540 5539 5539 5538 5537 5538 5542 5546 5548 5547 5547 5547 5546 5547 5544 5541 5543 5545 5542 5539 5535 5532 5529 5527 5525 5522 5520 5518 5521 5521 5521 5520 5518 5515 5514 5514 5513 5512 5510 5507 5502 5499
5530 5532 5531 5531 5530 5529 5529 5533 5538 5542 5541 5540 5538 5535 5532 5532 5531 5532 5536 5534 5531 5529 5527 5524 5520 5518 5516 5513 5511 5511 5514 5514 5513 5512 5510 5509 5509 5508 5508 5508 5506 5504 5501